Location: Unspecified
(35.6961°N, 0.0000°E)
Time: 01:22:53
(UTC+00:00)

S-56A Canister/Altair - Pass Details

Date: 08 October 2020
Orbit: 632 x 2500 km, 38.9° (Epoch: 20 October)

Event Time Altitude Azimuth Distance (km) Brightness Sun altitude
Rises 18:04:41 0° 292° (WNW) 6,180 13.5 -7.2°
Reaches altitude 10° 18:09:05 10° 286° (WNW) 5,120 13.1 -8.1°
Maximum altitude 18:22:20 43° 222° (SW) 2,761 10.7 -10.7°
Drops below altitude 10° 18:32:30 10° 155° (SSE) 3,954 10.9 -12.8°
Sets 18:35:28 0° 149° (SSE) 4,698 11.2 -13.4°
